COSMOS 2251 DEB, 35784

Orbit data source: Space-Track

COSMOS 2251 DEB, 35784 is space debris in LEO originally from a launch on Wed, 16 Jun 1993 UTC launched from the Plesetsk Missile And Space Complex (PKMTR). The debris from Iridium 33, an American commercial communications satellite, has been tracked extensively since its accidental collision with the defunct Russian satellite Cosmos 2251 in 2009. This event, occurring at high speed in low Earth orbit (LEO), generated thousands of pieces of space debris, significantly increasing the risk of further collisions. The Iridium 33 debris cloud has impacted space traffic management and orbital debris mitigation strategies, making it a subject of ongoing study in space situational awareness.

Loading next visibility...
Identifier
35784, 1993-036ASE
Orbit
LEO
Country
Flag of CISCIS
Related business
Manufacturer
Unknown
Mission
Spacecraft
Bus & Motor
Unknown
Mass
Unknown
Launch date (UTC)
1993-06-16 (33 years ago)
Launch vehicle
Unknown
Launch site
Plesetsk Missile And Space Complex (PKMTR)
Object type
Payload
Rocket body
Debris
Shape & HBR
Unknown shape, 0.1 m
Radar Cross Section
Small (<0.1 m²)

Expand to show TLE details & history
Last TLE update: 3 hours ago

TLE from 3 hours ago
0 COSMOS 2251 DEB
1 35784U 93036ASE 26236.54209013  .00000516  00000-0  13758-3 0  9990
2 35784  74.0396 331.0356 0040652  34.9729 325.4088 14.50508692694009
Epoch: 2026-08-24T13:00Z
TLE epoch observation values (Epoch: 2026-08-24T13:00:36.587Z)
Latitude
-0.00009°
Longitude
163.06083°
Altitude
702.883 km
Speed
7.517 km/s
True Right ascension
22h 04m 08s
True Declination
0° 00' 00"
Sunlit
Object was in full shadow at epoch
Visualization orbit readout
Latitude
Unknown
Longitude
Unknown
Altitude
Unknown
Speed
Unknown
Apparent Right ascension
Unknown
Apparent Declination
Unknown
Sunlit
N/A
Visualization observer readout
Local Sidereal Time
07:23:45
Azimuth
Unknown
Elevation
Unknown
Doppler factor
Unknown
Orbital elements
Apogee altitude
750.457 km
Perigee altitude
692.733 km
Semi-major axis
7,099.732 km
Eccentricity
0.00407
Inclination
74.0396°
RAAN
331.0356°
Arg. of periapsis
34.9729°
True anomaly
325.14323°
Mean anomaly
325.4088°
Eccentric anomaly
325.27612°
Mean motion
3.62811 °/min
Orbital period
99.23 mins
BSTAR
0.00013758

Documentation

Showing up to 5 results
|